| time (UTC) | temp F | wind direction | speed knots | gust knots | rain 1hr in | rain 24hr in | rain mn in | humidity % | barometer mb |
| 20260507230108 | 35 | 106 | 0.0 | 0.0 | 0.00 | 0.00 | 0.00 | 80 | 1021.7 |
| 20260507225608 | 35 | 106 | 0.0 | 0.0 | 0.00 | 0.00 | 0.00 | 80 | 1021.7 |
| 20260507225107 | 35 | 106 | 0.0 | 0.0 | 0.00 | 0.00 | 0.00 | 79 | 1021.6 |
| 20260507224611 | 35 | 106 | 0.0 | 0.0 | 0.00 | 0.00 | 0.00 | 79 | 1021.6 |
| 20260507224107 | 35 | 106 | 0.0 | 0.0 | 0.00 | 0.00 | 0.00 | 79 | 1021.6 |
| 20260507223607 | 35 | 106 | 0.0 | 0.0 | 0.00 | 0.00 | 0.00 | 79 | 1021.5 |
| 20260507223108 | 36 | 106 | 0.0 | 0.0 | 0.00 | 0.00 | 0.00 | 78 | 1021.5 |
| 20260507222607 | 36 | 106 | 0.0 | 0.0 | 0.00 | 0.00 | 0.00 | 79 | 1021.5 |
| 20260507222107 | 36 | 106 | 0.0 | 0.0 | 0.00 | 0.00 | 0.00 | 78 | 1021.5 |
| 20260507221606 | 36 | 106 | 0.0 | 0.0 | 0.00 | 0.00 | 0.00 | 78 | 1021.4 |
| 20260507221107 | 36 | 106 | 0.0 | 0.0 | 0.00 | 0.00 | 0.00 | 78 | 1021.4 |
| 20260507220607 | 36 | 106 | 0.0 | 0.0 | 0.00 | 0.00 | 0.00 | 78 | 1021.3 |
| 20260507220552 | 36 | 106 | 0.0 | 0.0 | 0.00 | 0.00 | 0.00 | 78 | 1021.4 |
| 20260507215607 | 36 | 106 | 0.0 | 0.0 | 0.00 | 0.00 | 0.00 | 77 | 1021.3 |
| 20260507215326 | 37 | 106 | 0.0 | 0.0 | 0.00 | 0.00 | 0.00 | 77 | 1021.3 |
| 20260507214606 | 37 | 106 | 0.0 | 0.0 | 0.00 | 0.00 | 0.00 | 77 | 1021.3 |
| 20260507214106 | 37 | 106 | 0.0 | 0.0 | 0.00 | 0.00 | 0.00 | 76 | 1021.2 |
| 20260507213605 | 37 | 106 | 0.0 | 0.0 | 0.00 | 0.00 | 0.00 | 76 | 1021.2 |
| 20260507213106 | 37 | 106 | 0.0 | 1.7 | 0.00 | 0.00 | 0.00 | 76 | 1021.0 |
| 20260507212826 | 37 | 106 | 0.0 | 1.7 | 0.00 | 0.00 | 0.00 | 76 | 1021.0 |
| 20260507212106 | 38 | 106 | 1.7 | 1.7 | 0.00 | 0.00 | 0.00 | 75 | 1021.0 |
| 20260507211605 | 38 | 106 | 0.0 | 1.7 | 0.00 | 0.00 | 0.00 | 74 | 1021.1 |
| 20260507211105 | 38 | 106 | 0.9 | 1.7 | 0.00 | 0.00 | 0.00 | 74 | 1021.0 |
| 20260507210606 | 38 | 106 | 0.9 | 1.7 | 0.00 | 0.00 | 0.00 | 73 | 1021.0 |
| 20260507210105 | 38 | 106 | 0.0 | 0.0 | 0.00 | 0.00 | 0.00 | 73 | 1020.9 |
| 20260507205824 | 39 | 106 | 0.0 | 0.0 | 0.00 | 0.00 | 0.00 | 72 | 1020.9 |
| 20260507205102 | 39 | 106 | 0.0 | 0.9 | 0.00 | 0.00 | 0.00 | 72 | 1020.8 |
| 20260507204824 | 39 | 106 | 0.0 | 1.7 | 0.00 | 0.00 | 0.00 | 72 | 1020.7 |
| 20260507204104 | 39 | 106 | 1.7 | 1.7 | 0.00 | 0.00 | 0.00 | 70 | 1020.7 |
| 20260507203826 | 40 | 106 | 0.0 | 0.0 | 0.00 | 0.00 | 0.00 | 69 | 1020.7 |
| 20260507203104 | 40 | 106 | 0.0 | 0.0 | 0.00 | 0.00 | 0.00 | 69 | 1020.6 |
| 20260507202827 | 40 | 106 | 0.0 | 0.0 | 0.00 | 0.00 | 0.00 | 70 | 1020.5 |
| 20260507202331 | 40 | 106 | 0.0 | 0.0 | 0.00 | 0.00 | 0.00 | 68 | 1020.5 |
| 20260507201603 | 40 | 106 | 0.0 | 0.9 | 0.00 | 0.00 | 0.00 | 68 | 1020.4 |
| 20260507201102 | 40 | 106 | 0.0 | 0.9 | 0.00 | 0.00 | 0.00 | 68 | 1020.4 |
| 20260507200603 | 40 | 106 | 0.9 | 1.7 | 0.00 | 0.00 | 0.00 | 67 | 1020.4 |
| 20260507200105 | 40 | 106 | 0.9 | 1.7 | 0.00 | 0.00 | 0.00 | 66 | 1020.2 |
| 20260507195605 | 40 | 106 | 0.9 | 1.7 | 0.00 | 0.00 | 0.00 | 65 | 1020.1 |
| 20260507195106 | 41 | 106 | 0.9 | 1.7 | 0.00 | 0.00 | 0.00 | 64 | 1020.1 |
| 20260507194605 | 41 | 106 | 0.9 | 1.7 | 0.00 | 0.00 | 0.00 | 63 | 1020.0 |
| 20260507194105 | 42 | 106 | 0.9 | 1.7 | 0.00 | 0.00 | 0.00 | 61 | 1020.0 |
| 20260507194050 | 42 | 106 | 0.0 | 0.9 | 0.00 | 0.00 | 0.00 | 59 | 1019.9 |
| 20260507193104 | 43 | 106 | 0.0 | 0.9 | 0.00 | 0.00 | 0.00 | 58 | 1019.8 |
| 20260507192824 | 44 | 106 | 0.0 | 0.9 | 0.00 | 0.00 | 0.00 | 57 | 1019.7 |
| 20260507192546 | 44 | 106 | 0.0 | 1.7 | 0.00 | 0.00 | 0.00 | 57 | 1019.6 |
| 20260507191605 | 44 | 106 | 0.9 | 3.5 | 0.00 | 0.00 | 0.00 | 57 | 1019.5 |
| 20260507191106 | 44 | 106 | 0.9 | 3.5 | 0.00 | 0.00 | 0.00 | 57 | 1019.5 |
| 20260507190605 | 44 | 104 | 1.7 | 3.5 | 0.00 | 0.00 | 0.00 | 54 | 1019.5 |
| 20260507190329 | 45 | 141 | 1.7 | 1.7 | 0.00 | 0.00 | 0.00 | 52 | 1019.4 |
| 20260507185605 | 46 | 141 | 0.9 | 1.7 | 0.00 | 0.00 | 0.00 | 50 | 1019.4 |
| 20260507185328 | 46 | 141 | 0.9 | 2.6 | 0.00 | 0.00 | 0.00 | 49 | 1019.3 |
| 20260507184605 | 46 | 141 | 0.9 | 2.6 | 0.00 | 0.00 | 0.00 | 47 | 1019.1 |
| 20260507184105 | 47 | 141 | 1.7 | 2.6 | 0.00 | 0.00 | 0.00 | 44 | 1019.1 |
| 20260507183605 | 47 | 141 | 1.7 | 2.6 | 0.00 | 0.00 | 0.00 | 42 | 1019.1 |
| 20260507183105 | 47 | 141 | 1.7 | 2.6 | 0.00 | 0.00 | 0.00 | 42 | 1019.1 |
| 20260507182605 | 48 | 141 | 0.9 | 4.3 | 0.00 | 0.00 | 0.00 | 41 | 1019.0 |
| 20260507182105 | 48 | 154 | 2.6 | 4.3 | 0.00 | 0.00 | 0.00 | 39 | 1018.9 |
| 20260507181605 | 48 | 166 | 0.9 | 5.2 | 0.00 | 0.00 | 0.00 | 39 | 1018.8 |
| 20260507181105 | 48 | 182 | 2.6 | 5.2 | 0.00 | 0.00 | 0.00 | 39 | 1018.7 |
| 20260507180829 | 49 | 199 | 1.7 | 5.2 | 0.00 | 0.00 | 0.00 | 38 | 1018.6 |
| 20260507180106 | 49 | 162 | 3.5 | 6.1 | 0.00 | 0.00 | 0.00 | 38 | 1018.7 |
| 20260507175605 | 49 | 186 | 3.5 | 6.1 | 0.00 | 0.00 | 0.00 | 38 | 1018.5 |
| 20260507175331 | 49 | 138 | 0.9 | 5.2 | 0.00 | 0.00 | 0.00 | 37 | 1018.5 |
| 20260507174826 | 50 | 173 | 1.7 | 5.2 | 0.00 | 0.00 | 0.00 | 36 | 1018.4 |
| 20260507174105 | 50 | 159 | 1.7 | 4.3 | 0.00 | 0.00 | 0.00 | 33 | 1018.3 |
| 20260507173832 | 50 | 183 | 2.6 | 6.1 | 0.00 | 0.00 | 0.00 | 35 | 1018.3 |
| 20260507173105 | 50 | 209 | 1.7 | 6.1 | 0.00 | 0.00 | 0.00 | 35 | 1018.2 |
| 20260507172824 | 50 | 159 | 3.5 | 5.2 | 0.00 | 0.00 | 0.00 | 35 | 1018.2 |
| 20260507172105 | 50 | 165 | 2.6 | 5.2 | 0.00 | 0.00 | 0.00 | 34 | 1018.2 |
| 20260507171603 | 51 | 168 | 2.6 | 7.8 | 0.00 | 0.00 | 0.00 | 34 | 1018.1 |
| 20260507171103 | 51 | 216 | 3.5 | 7.8 | 0.00 | 0.00 | 0.00 | 34 | 1018.0 |
| 20260507170604 | 51 | 192 | 1.7 | 5.2 | 0.00 | 0.00 | 0.00 | 33 | 1018.0 |
| 20260507170104 | 51 | 176 | 1.7 | 7.8 | 0.00 | 0.00 | 0.00 | 35 | 1017.9 |
| 20260507165605 | 51 | 193 | 3.5 | 7.8 | 0.00 | 0.00 | 0.00 | 35 | 1017.9 |
| 20260507165105 | 51 | 171 | 4.3 | 6.1 | 0.00 | 0.00 | 0.00 | 33 | 1017.8 |
| 20260507164829 | 51 | 173 | 1.7 | 7.8 | 0.00 | 0.00 | 0.00 | 33 | 1017.7 |
| 20260507164106 | 52 | 248 | 2.6 | 7.8 | 0.00 | 0.00 | 0.00 | 33 | 1017.6 |
| 20260507163605 | 52 | 175 | 1.7 | 7.8 | 0.00 | 0.00 | 0.00 | 34 | 1017.6 |
| 20260507163548 | 52 | 202 | 3.5 | 7.8 | 0.00 | 0.00 | 0.00 | 33 | 1017.5 |
| 20260507162605 | 52 | 173 | 2.6 | 6.1 | 0.00 | 0.00 | 0.00 | 34 | 1017.5 |
| 20260507162105 | 53 | 209 | 2.6 | 6.1 | 0.00 | 0.00 | 0.00 | 34 | 1017.6 |
| 20260507161605 | 53 | 278 | 3.5 | 6.1 | 0.00 | 0.00 | 0.00 | 34 | 1017.5 |
| 20260507161322 | 53 | 188 | 4.3 | 8.7 | 0.00 | 0.00 | 0.00 | 32 | 1017.6 |
| 20260507160603 | 53 | 161 | 3.5 | 8.7 | 0.00 | 0.00 | 0.00 | 26 | 1017.6 |
| 20260507160306 | 53 | 138 | 3.5 | 5.2 | 0.00 | 0.00 | 0.00 | 25 | 1017.5 |
| 20260507155105 | 53 | 110 | 7.0 | 10.4 | 0.00 | 0.00 | 0.00 | 26 | 1017.4 |
| 20260507154605 | 53 | 157 | 4.3 | 7.8 | 0.00 | 0.00 | 0.00 | 26 | 1017.4 |
| 20260507154104 | 53 | 197 | 4.3 | 9.6 | 0.00 | 0.00 | 0.00 | 25 | 1017.2 |
| 20260507153605 | 53 | 171 | 6.1 | 9.6 | 0.00 | 0.00 | 0.00 | 26 | 1017.2 |
| 20260507153329 | 53 | 151 | 5.2 | 8.7 | 0.00 | 0.00 | 0.00 | 27 | 1017.2 |
| 20260507152605 | 53 | 149 | 5.2 | 8.7 | 0.00 | 0.00 | 0.00 | 28 | 1017.1 |
| 20260507152105 | 53 | 151 | 6.1 | 8.7 | 0.00 | 0.00 | 0.00 | 28 | 1017.1 |
| 20260507151605 | 54 | 147 | 5.2 | 8.7 | 0.00 | 0.00 | 0.00 | 28 | 1017.1 |
| 20260507151106 | 54 | 154 | 2.6 | 8.7 | 0.00 | 0.00 | 0.00 | 29 | 1017.0 |
| 20260507150605 | 54 | 264 | 5.2 | 9.6 | 0.00 | 0.00 | 0.00 | 29 | 1017.1 |
| 20260507150321 | 54 | 186 | 6.1 | 9.6 | 0.00 | 0.00 | 0.00 | 30 | 1017.0 |
| 20260507145605 | 54 | 164 | 4.3 | 7.8 | 0.00 | 0.00 | 0.00 | 31 | 1017.0 |
| 20260507145105 | 54 | 219 | 2.6 | 10.4 | 0.00 | 0.00 | 0.00 | 32 | 1017.0 |
| 20260507144832 | 54 | 127 | 5.2 | 10.4 | 0.00 | 0.00 | 0.00 | 31 | 1016.9 |
| 20260507144104 | 54 | 137 | 7.8 | 11.3 | 0.00 | 0.00 | 0.00 | 31 | 1016.9 |
| 20260507143605 | 54 | 107 | 7.8 | 11.3 | 0.00 | 0.00 | 0.00 | 32 | 1016.9 |
| 20260507143105 | 54 | 137 | 4.3 | 9.6 | 0.00 | 0.00 | 0.00 | 33 | 1016.8 |
| 20260507142605 | 54 | 162 | 5.2 | 8.7 | 0.00 | 0.00 | 0.00 | 32 | 1016.8 |
| 20260507142104 | 54 | 137 | 5.2 | 8.7 | 0.00 | 0.00 | 0.00 | 31 | 1016.8 |
| 20260507141605 | 54 | 159 | 5.2 | 9.6 | 0.00 | 0.00 | 0.00 | 32 | 1016.7 |
| 20260507141105 | 54 | 97 | 6.1 | 11.3 | 0.00 | 0.00 | 0.00 | 32 | 1016.7 |
| 20260507140604 | 54 | 175 | 5.2 | 11.3 | 0.00 | 0.00 | 0.00 | 32 | 1016.6 |
| 20260507140104 | 54 | 148 | 5.2 | 7.8 | 0.00 | 0.00 | 0.00 | 31 | 1016.5 |
| 20260507135605 | 55 | 175 | 3.5 | 7.8 | 0.00 | 0.00 | 0.00 | 33 | 1016.6 |
| 20260507135105 | 55 | 133 | 4.3 | 10.4 | 0.00 | 0.00 | 0.00 | 33 | 1016.6 |
| 20260507134603 | 54 | 133 | 6.1 | 11.3 | 0.00 | 0.00 | 0.00 | 33 | 1016.5 |
| 20260507134103 | 55 | 142 | 7.8 | 11.3 | 0.00 | 0.00 | 0.00 | 33 | 1016.4 |
| 20260507133604 | 55 | 192 | 2.6 | 10.4 | 0.00 | 0.00 | 0.00 | 32 | 1016.4 |
| 20260507133104 | 55 | 172 | 7.0 | 9.6 | 0.00 | 0.00 | 0.00 | 32 | 1016.4 |
| 20260507132604 | 55 | 152 | 5.2 | 10.4 | 0.00 | 0.00 | 0.00 | 34 | 1016.3 |
| 20260507132104 | 54 | 125 | 5.2 | 10.4 | 0.00 | 0.00 | 0.00 | 32 | 1016.3 |
| 20260507131604 | 55 | 127 | 6.1 | 10.4 | 0.00 | 0.00 | 0.00 | 32 | 1016.2 |
| 20260507131324 | 55 | 152 | 6.1 | 13.0 | 0.00 | 0.00 | 0.00 | 33 | 1016.2 |
| 20260507130603 | 54 | 111 | 6.1 | 13.0 | 0.00 | 0.00 | 0.00 | 31 | 1016.2 |
| 20260507130104 | 55 | 72 | 4.3 | 13.0 | 0.00 | 0.00 | 0.00 | 32 | 1016.2 |
| 20260507125603 | 55 | 137 | 5.2 | 13.0 | 0.00 | 0.00 | 0.00 | 32 | 1016.2 |
| 20260507125104 | 55 | 107 | 7.0 | 11.3 | 0.00 | 0.00 | 0.00 | 31 | 1016.2 |
| 20260507124603 | 55 | 116 | 3.5 | 13.9 | 0.00 | 0.00 | 0.00 | 30 | 1016.1 |
| 20260507124103 | 54 | 135 | 7.8 | 13.9 | 0.00 | 0.00 | 0.00 | 29 | 1016.1 |
| 20260507123604 | 55 | 94 | 5.2 | 12.2 | 0.00 | 0.00 | 0.00 | 28 | 1016.1 |
| 20260507123103 | 56 | 124 | 5.2 | 10.4 | 0.00 | 0.00 | 0.00 | 28 | 1016.1 |
| 20260507122604 | 56 | 164 | 5.2 | 9.6 | 0.00 | 0.00 | 0.00 | 29 | 1016.0 |
| 20260507122329 | 56 | 111 | 7.0 | 9.6 | 0.00 | 0.00 | 0.00 | 27 | 1016.0 |
| 20260507121604 | 56 | 231 | 3.5 | 6.1 | 0.00 | 0.00 | 0.00 | 27 | 1016.0 |
| 20260507121259 | 57 | 190 | 3.5 | 6.1 | 0.00 | 0.00 | 0.00 | 28 | 1015.9 |
| 20260507120103 | 57 | 203 | 2.6 | 6.1 | 0.00 | 0.00 | 0.00 | 27 | 1016.0 |
| 20260507115824 | 57 | 279 | 2.6 | 4.3 | 0.00 | 0.00 | 0.00 | 27 | 1015.9 |
| 20260507115103 | 57 | 161 | 2.6 | 5.2 | 0.00 | 0.00 | 0.00 | 28 | 1016.0 |
| 20260507115041 | 57 | 165 | 3.5 | 5.2 | 0.00 | 0.00 | 0.00 | 27 | 1016.0 |
| 20260507114103 | 57 | 275 | 2.6 | 4.3 | 0.00 | 0.00 | 0.00 | 28 | 1015.9 |
| 20260507113603 | 56 | 255 | 1.7 | 8.7 | 0.00 | 0.00 | 0.00 | 29 | 1015.9 |
| 20260507113324 | 56 | 203 | 4.3 | 12.2 | 0.00 | 0.00 | 0.00 | 28 | 1015.9 |
| 20260507112604 | 55 | 111 | 6.1 | 12.2 | 0.00 | 0.00 | 0.00 | 29 | 1015.9 |
| 20260507112327 | 55 | 54 | 4.3 | 7.8 | 0.00 | 0.00 | 0.00 | 29 | 1015.9 |
| 20260507111603 | 54 | 137 | 2.6 | 10.4 | 0.00 | 0.00 | 0.00 | 29 | 1015.9 |
| 20260507111103 | 53 | 165 | 5.2 | 10.4 | 0.00 | 0.00 | 0.00 | 28 | 1016.0 |
| 20260507110604 | 54 | 110 | 7.0 | 9.6 | 0.00 | 0.00 | 0.00 | 28 | 1015.9 |
| 20260507110328 | 54 | 62 | 2.6 | 10.4 | 0.00 | 0.00 | 0.00 | 28 | 1015.8 |
| 20260507105603 | 54 | 149 | 5.2 | 10.4 | 0.00 | 0.00 | 0.00 | 27 | 1015.9 |
| 20260507105104 | 55 | 207 | 3.5 | 7.8 | 0.00 | 0.00 | 0.00 | 27 | 1015.8 |
| 20260507104829 | 55 | 141 | 2.6 | 7.8 | 0.00 | 0.00 | 0.00 | 28 | 1015.9 |
| 20260507104104 | 54 | 138 | 3.5 | 10.4 | 0.00 | 0.00 | 0.00 | 27 | 1015.8 |
| 20260507103603 | 54 | 179 | 4.3 | 10.4 | 0.00 | 0.00 | 0.00 | 28 | 1015.7 |
| 20260507103104 | 54 | 152 | 4.3 | 10.4 | 0.00 | 0.00 | 0.00 | 28 | 1015.7 |
| 20260507102603 | 53 | 203 | 3.5 | 10.4 | 0.00 | 0.00 | 0.00 | 27 | 1015.7 |
| 20260507102103 | 54 | 185 | 4.3 | 7.8 | 0.00 | 0.00 | 0.00 | 26 | 1015.7 |
| 20260507101603 | 54 | 148 | 4.3 | 8.7 | 0.00 | 0.00 | 0.00 | 28 | 1015.7 |
| 20260507101103 | 53 | 162 | 5.2 | 8.7 | 0.00 | 0.00 | 0.00 | 27 | 1015.7 |
| 20260507100823 | 53 | 128 | 3.5 | 9.6 | 0.00 | 0.00 | 0.00 | 27 | 1015.6 |
| 20260507100105 | 53 | 83 | 7.0 | 9.6 | 0.00 | 0.00 | 0.00 | 27 | 1015.7 |
| 20260507095824 | 53 | 137 | 4.3 | 10.4 | 0.00 | 0.00 | 0.00 | 27 | 1015.6 |
| 20260507095104 | 52 | 55 | 5.2 | 10.4 | 0.00 | 0.00 | 0.00 | 27 | 1015.5 |
| 20260507094830 | 53 | 80 | 3.5 | 8.7 | 0.00 | 0.00 | 0.00 | 28 | 1015.6 |
| 20260507094104 | 53 | 45 | 2.6 | 10.4 | 0.00 | 0.00 | 0.00 | 28 | 1015.5 |
| 20260507093604 | 53 | 141 | 5.2 | 11.3 | 0.00 | 0.00 | 0.00 | 29 | 1015.5 |
| 20260507093324 | 53 | 125 | 6.1 | 11.3 | 0.00 | 0.00 | 0.00 | 28 | 1015.5 |
| 20260507092604 | 52 | 154 | 4.3 | 9.6 | 0.00 | 0.00 | 0.00 | 29 | 1015.5 |
| 20260507092103 | 52 | 78 | 5.2 | 8.7 | 0.00 | 0.00 | 0.00 | 29 | 1015.5 |
| 20260507091820 | 52 | 110 | 5.2 | 8.7 | 0.00 | 0.00 | 0.00 | 28 | 1015.5 |
| 20260507091104 | 52 | 97 | 4.3 | 9.6 | 0.00 | 0.00 | 0.00 | 30 | 1015.4 |
| 20260507090604 | 52 | 90 | 6.1 | 9.6 | 0.00 | 0.00 | 0.00 | 28 | 1015.5 |
| 20260507090103 | 53 | 97 | 4.3 | 7.8 | 0.00 | 0.00 | 0.00 | 29 | 1015.4 |
| 20260507085604 | 52 | 73 | 2.6 | 10.4 | 0.00 | 0.00 | 0.00 | 29 | 1015.4 |
| 20260507085104 | 52 | 117 | 7.0 | 10.4 | 0.00 | 0.00 | 0.00 | 28 | 1015.3 |
| 20260507084604 | 52 | 127 | 1.7 | 8.7 | 0.00 | 0.00 | 0.00 | 29 | 1015.4 |
| 20260507084104 | 52 | 80 | 3.5 | 8.7 | 0.00 | 0.00 | 0.00 | 29 | 1015.4 |
| 20260507083604 | 52 | 180 | 3.5 | 7.8 | 0.00 | 0.00 | 0.00 | 29 | 1015.4 |
| 20260507083104 | 52 | 72 | 4.3 | 7.8 | 0.00 | 0.00 | 0.00 | 29 | 1015.4 |
| 20260507083049 | 53 | 99 | 1.7 | 3.5 | 0.00 | 0.00 | 0.00 | 29 | 1015.4 |
| 20260507082104 | 53 | 259 | 2.6 | 4.3 | 0.00 | 0.00 | 0.00 | 29 | 1015.3 |
| 20260507081603 | 53 | 196 | 2.6 | 4.3 | 0.00 | 0.00 | 0.00 | 27 | 1015.3 |
| 20260507081103 | 53 | 185 | 1.7 | 3.5 | 0.00 | 0.00 | 0.00 | 29 | 1015.3 |
| 20260507080604 | 52 | 172 | 2.6 | 5.2 | 0.00 | 0.00 | 0.00 | 29 | 1015.2 |
| 20260507080104 | 52 | 148 | 3.5 | 5.2 | 0.00 | 0.00 | 0.00 | 30 | 1015.3 |
| 20260507075604 | 52 | 121 | 2.6 | 5.2 | 0.00 | 0.00 | 0.00 | 32 | 1015.3 |
| 20260507075104 | 51 | 180 | 0.9 | 5.2 | 0.00 | 0.00 | 0.00 | 32 | 1015.3 |
| 20260507074603 | 51 | 173 | 3.5 | 5.2 | 0.00 | 0.00 | 0.00 | 32 | 1015.3 |
| 20260507074103 | 51 | 214 | 1.7 | 4.3 | 0.00 | 0.00 | 0.00 | 36 | 1015.1 |
| 20260507073603 | 51 | 289 | 0.9 | 3.5 | 0.00 | 0.00 | 0.00 | 35 | 1015.2 |
| 20260507073103 | 51 | 175 | 2.6 | 3.5 | 0.00 | 0.00 | 0.00 | 33 | 1015.2 |
| 20260507072603 | 51 | 266 | 2.6 | 3.5 | 0.00 | 0.00 | 0.00 | 35 | 1015.2 |
| 20260507072103 | 51 | 196 | 2.6 | 3.5 | 0.00 | 0.00 | 0.00 | 33 | 1015.2 |
| 20260507071604 | 51 | 200 | 1.7 | 5.2 | 0.00 | 0.00 | 0.00 | 34 | 1015.2 |
| 20260507071103 | 50 | 207 | 2.6 | 5.2 | 0.00 | 0.00 | 0.00 | 37 | 1015.3 |
| 20260507070603 | 49 | 207 | 2.6 | 4.3 | 0.00 | 0.00 | 0.00 | 37 | 1015.2 |
| 20260507065603 | 49 | 158 | 3.5 | 7.8 | 0.00 | 0.00 | 0.00 | 38 | 1015.3 |
| 20260507065104 | 49 | 134 | 3.5 | 7.8 | 0.00 | 0.00 | 0.00 | 37 | 1015.2 |
| 20260507064824 | 50 | 83 | 1.7 | 4.3 | 0.00 | 0.00 | 0.00 | 36 | 1015.2 |
| 20260507064104 | 49 | 128 | 1.7 | 4.3 | 0.00 | 0.00 | 0.00 | 40 | 1015.2 |
| 20260507063604 | 48 | 175 | 1.7 | 5.2 | 0.00 | 0.00 | 0.00 | 37 | 1015.2 |
| 20260507063104 | 48 | 149 | 3.5 | 6.1 | 0.00 | 0.00 | 0.00 | 36 | 1015.2 |
| 20260507062604 | 48 | 137 | 5.2 | 6.1 | 0.00 | 0.00 | 0.00 | 39 | 1015.2 |
| 20260507062104 | 48 | 121 | 0.9 | 4.3 | 0.00 | 0.00 | 0.00 | 44 | 1015.2 |
| 20260507061829 | 48 | 173 | 1.7 | 4.3 | 0.00 | 0.00 | 0.00 | 45 | 1015.1 |
| 20260507061103 | 47 | 195 | 2.6 | 5.2 | 0.00 | 0.00 | 0.00 | 46 | 1015.1 |
| 20260507060604 | 47 | 162 | 2.6 | 5.2 | 0.00 | 0.00 | 0.00 | 49 | 1015.1 |
| 20260507060103 | 46 | 135 | 1.7 | 6.1 | 0.00 | 0.00 | 0.00 | 52 | 1015.1 |
| 20260507055830 | 46 | 110 | 4.3 | 6.1 | 0.00 | 0.00 | 0.00 | 52 | 1015.1 |
| 20260507055103 | 46 | 161 | 2.6 | 4.3 | 0.00 | 0.00 | 0.00 | 54 | 1015.0 |
| 20260507055054 | 46 | 127 | 2.6 | 4.3 | 0.00 | 0.00 | 0.00 | 60 | 1014.9 |
| 20260507054104 | 45 | 217 | 1.7 | 4.3 | 0.00 | 0.00 | 0.00 | 62 | 1015.0 |
| 20260507053603 | 45 | 199 | 2.6 | 4.3 | 0.00 | 0.00 | 0.00 | 69 | 1015.0 |
| 20260507053102 | 44 | 124 | 1.7 | 3.5 | 0.00 | 0.00 | 0.00 | 72 | 1015.0 |
| 20260507052603 | 44 | 135 | 3.5 | 3.5 | 0.00 | 0.00 | 0.00 | 73 | 1014.9 |
| 20260507052325 | 44 | 175 | 1.7 | 3.5 | 0.00 | 0.00 | 0.00 | 75 | 1015.0 |
| 20260507051604 | 43 | 147 | 1.7 | 4.3 | 0.00 | 0.00 | 0.00 | 77 | 1014.9 |
| 20260507051324 | 42 | 125 | 3.5 | 5.2 | 0.00 | 0.00 | 0.00 | 78 | 1014.9 |
| 20260507050603 | 42 | 154 | 4.3 | 5.2 | 0.00 | 0.00 | 0.00 | 78 | 1014.8 |
| 20260507045602 | 42 | 148 | 4.3 | 5.2 | 0.00 | 0.00 | 0.00 | 80 | 1014.9 |
| 20260507045548 | 41 | 128 | 1.7 | 3.5 | 0.00 | 0.00 | 0.00 | 81 | 1014.8 |
| 20260507044603 | 41 | 62 | 2.6 | 3.5 | 0.00 | 0.00 | 0.00 | 81 | 1014.9 |
| 20260507044325 | 41 | 47 | 1.7 | 2.6 | 0.00 | 0.00 | 0.00 | 83 | 1014.9 |
| 20260507043604 | 40 | 47 | 1.7 | 1.7 | 0.00 | 0.00 | 0.00 | 84 | 1014.9 |
| 20260507043103 | 39 | 47 | 0.9 | 1.7 | 0.00 | 0.00 | 0.00 | 87 | 1014.9 |
| 20260507042604 | 38 | 47 | 0.0 | 1.7 | 0.00 | 0.00 | 0.00 | 89 | 1014.9 |
| 20260507042103 | 37 | 162 | 0.9 | 1.7 | 0.00 | 0.00 | 0.00 | 89 | 1014.9 |
| 20260507041604 | 36 | 162 | 1.7 | 1.7 | 0.00 | 0.00 | 0.00 | 90 | 1014.9 |
| 20260507041103 | 36 | 162 | 0.9 | 1.7 | 0.00 | 0.00 | 0.00 | 90 | 1014.9 |
| 20260507040603 | 35 | 162 | 0.9 | 1.7 | 0.00 | 0.00 | 0.00 | 91 | 1014.8 |
| 20260507040103 | 35 | 162 | 0.9 | 1.7 | 0.00 | 0.00 | 0.00 | 92 | 1014.8 |
| 20260507035603 | 34 | 162 | 0.9 | 1.7 | 0.00 | 0.00 | 0.00 | 92 | 1014.7 |
| 20260507035103 | 33 | 162 | 0.9 | 1.7 | 0.00 | 0.00 | 0.00 | 90 | 1014.7 |
| 20260507034603 | 32 | 162 | 1.7 | 1.7 | 0.00 | 0.00 | 0.00 | 90 | 1014.7 |
| 20260507034103 | 32 | 162 | 0.0 | 0.0 | 0.00 | 0.00 | 0.00 | 91 | 1014.7 |
| 20260507033832 | 32 | 162 | 0.0 | 0.9 | 0.00 | 0.00 | 0.00 | 91 | 1014.7 |
| 20260507033103 | 32 | 162 | 0.0 | 0.9 | 0.00 | 0.00 | 0.00 | 91 | 1014.7 |
| 20260507032604 | 31 | 162 | 0.0 | 1.7 | 0.00 | 0.00 | 0.00 | 91 | 1014.5 |
| 20260507032104 | 31 | 162 | 0.9 | 1.7 | 0.00 | 0.00 | 0.00 | 91 | 1014.6 |
| 20260507031605 | 31 | 162 | 0.9 | 0.9 | 0.00 | 0.00 | 0.00 | 91 | 1014.6 |
| 20260507031104 | 31 | 162 | 0.9 | 0.9 | 0.00 | 0.00 | 0.00 | 91 | 1014.5 |
| 20260507030604 | 31 | 162 | 0.9 | 0.9 | 0.00 | 0.00 | 0.00 | 91 | 1014.5 |
| 20260507030104 | 31 | 162 | 0.0 | 0.0 | 0.00 | 0.00 | 0.00 | 91 | 1014.4 |
| 20260507025604 | 31 | 162 | 0.0 | 0.0 | 0.00 | 0.00 | 0.00 | 91 | 1014.4 |
| 20260507025104 | 31 | 162 | 0.0 | 0.0 | 0.00 | 0.00 | 0.00 | 91 | 1014.4 |
| 20260507024603 | 30 | 162 | 0.0 | 0.0 | 0.00 | 0.00 | 0.00 | 90 | 1014.4 |
| 20260507024104 | 30 | 162 | 0.0 | 0.0 | 0.00 | 0.00 | 0.00 | 90 | 1014.4 |
| 20260507023826 | 31 | 162 | 0.0 | 0.0 | 0.00 | 0.00 | 0.00 | 90 | 1014.5 |
| 20260507023103 | 31 | 162 | 0.0 | 0.0 | 0.00 | 0.00 | 0.00 | 90 | 1014.5 |
| 20260507022603 | 31 | 162 | 0.0 | 0.0 | 0.00 | 0.00 | 0.00 | 90 | 1014.5 |
| 20260507022103 | 31 | 162 | 0.0 | 0.0 | 0.00 | 0.00 | 0.00 | 90 | 1014.4 |
| 20260507021604 | 31 | 162 | 0.0 | 0.0 | 0.00 | 0.00 | 0.00 | 90 | 1014.4 |
| 20260507021103 | 31 | 162 | 0.0 | 1.7 | 0.00 | 0.00 | 0.00 | 90 | 1014.4 |
| 20260507020603 | 31 | 162 | 0.0 | 1.7 | 0.00 | 0.00 | 0.00 | 90 | 1014.4 |
| 20260507020104 | 31 | 162 | 1.7 | 1.7 | 0.00 | 0.00 | 0.00 | 90 | 1014.4 |
| 20260507015602 | 31 | 162 | 0.0 | 0.0 | 0.00 | 0.00 | 0.00 | 89 | 1014.4 |
| 20260507015323 | 31 | 162 | 0.0 | 0.0 | 0.00 | 0.00 | 0.00 | 89 | 1014.3 |
| 20260507014603 | 31 | 162 | 0.0 | 0.0 | 0.00 | 0.00 | 0.00 | 88 | 1014.3 |
| 20260507014326 | 31 | 162 | 0.0 | 0.0 | 0.00 | 0.00 | 0.00 | 88 | 1014.3 |
| 20260507013603 | 31 | 162 | 0.0 | 0.0 | 0.00 | 0.00 | 0.00 | 88 | 1014.3 |
| 20260507013104 | 32 | 162 | 0.0 | 0.0 | 0.00 | 0.00 | 0.00 | 88 | 1014.3 |
| 20260507012604 | 32 | 162 | 0.0 | 0.0 | 0.00 | 0.00 | 0.00 | 88 | 1014.3 |
| 20260507012104 | 32 | 162 | 0.0 | 0.0 | 0.00 | 0.00 | 0.00 | 87 | 1014.2 |
| 20260507011604 | 32 | 162 | 0.0 | 0.0 | 0.00 | 0.00 | 0.00 | 87 | 1014.3 |
| 20260507011103 | 33 | 162 | 0.0 | 0.0 | 0.00 | 0.00 | 0.00 | 86 | 1014.2 |
| 20260507010604 | 33 | 162 | 0.0 | 0.0 | 0.00 | 0.00 | 0.00 | 85 | 1014.3 |
| 20260507010104 | 34 | 162 | 0.0 | 0.0 | 0.00 | 0.00 | 0.00 | 86 | 1014.2 |
| 20260507005604 | 34 | 162 | 0.0 | 1.7 | 0.00 | 0.00 | 0.00 | 86 | 1014.2 |
| 20260507005105 | 34 | 162 | 0.9 | 1.7 | 0.00 | 0.00 | 0.00 | 86 | 1014.1 |
| 20260507004603 | 34 | 162 | 1.7 | 1.7 | 0.00 | 0.00 | 0.00 | 85 | 1014.1 |
| 20260507004324 | 35 | 162 | 0.0 | 0.9 | 0.00 | 0.00 | 0.00 | 84 | 1014.2 |
| 20260507003604 | 35 | 162 | 0.0 | 0.9 | 0.00 | 0.00 | 0.00 | 85 | 1014.1 |
| 20260507003325 | 35 | 162 | 0.9 | 1.7 | 0.00 | 0.00 | 0.00 | 85 | 1014.1 |
| 20260507002829 | 35 | 162 | 0.9 | 1.7 | 0.00 | 0.00 | 0.00 | 84 | 1014.0 |
| 20260507002103 | 35 | 162 | 0.9 | 1.7 | 0.00 | 0.00 | 0.00 | 85 | 1014.0 |
| 20260507001604 | 35 | 162 | 0.9 | 1.7 | 0.00 | 0.00 | 0.00 | 85 | 1013.9 |
| 20260507001103 | 35 | 162 | 0.9 | 2.6 | 0.00 | 0.00 | 0.00 | 85 | 1013.8 |
| 20260507000603 | 35 | 162 | 1.7 | 2.6 | 0.00 | 0.00 | 0.00 | 86 | 1013.7 |
| 20260507000104 | 35 | 162 | 1.7 | 2.6 | 0.00 | 0.00 | 0.00 | 86 | 1013.7 |
| 20260506235603 | 35 | 162 | 1.7 | 2.6 | 0.00 | 0.00 | 0.00 | 87 | 1013.8 |
| 20260506235103 | 35 | 162 | 1.7 | 2.6 | 0.00 | 0.00 | 0.00 | 87 | 1013.8 |
| 20260506234604 | 34 | 162 | 1.7 | 2.6 | 0.00 | 0.00 | 0.00 | 87 | 1013.8 |
| 20260506234547 | 33 | 162 | 1.7 | 1.7 | 0.00 | 0.00 | 0.00 | 86 | 1013.8 |
| 20260506233603 | 33 | 162 | 0.9 | 1.7 | 0.00 | 0.00 | 0.00 | 85 | 1013.8 |
| 20260506233103 | 33 | 162 | 0.0 | 0.9 | 0.00 | 0.00 | 0.00 | 86 | 1014.0 |
| 20260506232603 | 34 | 162 | 0.9 | 0.9 | 0.00 | 0.00 | 0.00 | 85 | 1013.9 |
| 20260506232104 | 34 | 162 | 0.0 | 0.9 | 0.00 | 0.00 | 0.00 | 85 | 1013.9 |
| 20260506232041 | 34 | 162 | 0.0 | 1.7 | 0.00 | 0.00 | 0.00 | 85 | 1013.9 |
| 20260506231103 | 33 | 162 | 0.9 | 1.7 | 0.00 | 0.00 | 0.00 | 84 | 1013.9 |
| 20260506230603 | 34 | 162 | 0.0 | 1.7 | 0.00 | 0.00 | 0.00 | 83 | 1013.9 |